Regional Weather Roundup
Issued by NWS

Home | Current Version | Previous Version | Text Only | Print | Product List | Glossary On
Versions: 1 2 3 4 5 6 7 8 9 10 11 12 13 14 15 16 17 18 19 20 21 22 23 24 25 26 27 28 29 30 31 32 33 34 35 36 37 38 39 40 41 42 43 44 45 46 47 48 49 50
000
ASUS42 KTBW 281018
RWRFL
FLORIDA REGIONAL WEATHER ROUNDUP
NATIONAL WEATHER SERVICE TAMPA BAY RUSKIN FL
600 AM EDT FRI APR 28 2017

NOTE: "FAIR" INDICATES FEW OR NO CLOUDS BELOW 12,000 FEET WITH NO
SIGNIFICANT WEATHER AND/OR OBSTRUCTIONS TO VISIBILITY.

FLZ001>010-012>015-112-114-115-281100-
PANHANDLE FLORIDA

CITY           SKY/WX    TMP DP  RH WIND       PRES   REMARKS
PENSACOLA      CLOUDY    77  73  87 S14       29.88R
PENSACOLA NAS  CLOUDY    76  73  91 S16       29.87R
CRESTVIEW      CLOUDY    75  72  90 S7        29.92R
DUKE FIELD     CLOUDY    75  72  88 S12       29.89R
VALPARAISO     MOCLDY    74  73  96 S14       29.90R
MARY ESTHER    CLOUDY    74  73  97 S14       29.89R
TRI COUNTY     CLOUDY    74  72  93 S5        29.93
PANAMA CITY    CLOUDY    74  72  93 SE7       29.91R
TYNDALL AFB    CLOUDY    73  73 100 S13       29.93R
APALACHICOLA   CLOUDY    75  75 100 S12       29.93R

STATION/POSITION SKY/WX   TEMP    WIND        PRES    WAVE   SWELL
                          AIR SEA DIR/SP/G            HT/PER HT/PER
                          (F)     (DEG/KT/KT) (MB)    (FT/S) (FT/S)
30.1N   87.6W              75 75  150/ 16/ 17 1011.1R   4/ 7   3/ 7
29.2N   88.2W              76 76  150/ 17/ 21 1010.5
28.8N   86.0W              75 74  150/ 14/ 16 1012.5R   3/ 8   2/ 8
PANAMA CITY BEAC           73 75  150/ 13/ 15 1013.1R
TOWER C                    72     160/ 13/ 15 1014.4R
28.5N   84.5W              73 74  130/ 10/ 12 1014.0R   3/ 6   2/ 6

$$
FLZ011-016>038-118-127-128-134-139-239-281100-
NORTH FLORIDA

CITY           SKY/WX    TMP DP  RH WIND       PRES   REMARKS
MARIANNA       CLOUDY    74  72  93 SE3       29.92R
TALLAHASSEE    FOG       69  69 100 CALM      29.95R VSB 1/4
PERRY          CLOUDY    72  71  97 SE6       29.97R FOG
CROSS CITY     FOG       70  68  94 S5        29.98R VSB 1/4
LAKE CITY      FAIR      63  63 100 CALM      29.99R FOG
GAINESVILLE    CLEAR     63  61  93 CALM      29.99R
WILLISTON      CLEAR     64  63  94 CALM      30.00R FOG
PALATKA        CLOUDY    63  63 100 CALM      30.00S
MAYPORT NAS    PTCLDY    69  69 100 CALM      29.99R
JACKSONVILLE   CLEAR     66  66 100 CALM      29.98R
JAX NAS        CLEAR     74  66  76 CALM      30.00R
FERNANDINA BEA FAIR      70  70 100 CALM      29.98R
ST AUGUSTINE   CLEAR     70  68  93 W3        30.01R

STATION/POSITION SKY/WX   TEMP    WIND        PRES    WAVE   SWELL
                          AIR SEA DIR/SP/G            HT/PER HT/PER
                          (F)     (DEG/KT/KT) (MB)    (FT/S) (FT/S)
SHELL POINT      NOT AVBL
KEATON BEACH               70     110/  4/  5 1014.4R
CEDAR KEY                  75     170/  8/ 10 1015.6R
FERNANDINA                 73 76  100/  1/  1 1016.1R
30.7N   81.3W                 74                N/A     3/ 8
MAYPORT                    73 76  220/  1/  3 1015.7R
31.4N   80.9W              73 73  170/  6/  8 1015.3R   4/ 8   3/ 8
ST AUGUSTINE               72 75  210/  3/  4 1016.6R

$$
FLZ040-043>046-052-053-057-058-063-144-281100-
INTERIOR CENTRAL FLORIDA

CITY           SKY/WX    TMP DP  RH WIND       PRES   REMARKS
OCALA          CLEAR     64  61  88 CALM      30.01R
THE VILLAGES     N/A     70  68  94 CALM      29.91R
LEESBURG       CLEAR     72  70  93 CALM      30.01R
SANFORD        PTCLDY    73  70  90 W3        30.00R
ORLANDO EXEC   PTCLDY    74  68  81 CALM      30.00R
ORLANDO INTL   CLEAR     69  67  93 S3        30.01R
KISSIMMEE      CLEAR     70  66  87 CALM      30.02R
WINTER HAVEN   CLEAR     72  69  90 S3        30.01R
LAKELAND       CLEAR     68  68 100 CALM      30.00S
BARTOW         FAIR      68 N/A N/A CALM      30.01R HAZE
OKEECHOBEE     CLEAR     73  72  94 CALM      30.01R

$$
FLZ041-047-054-059-064-141-147-281100-
EAST CENTRAL FLORIDA

CITY           SKY/WX    TMP DP  RH WIND       PRES   REMARKS
DAYTONA BEACH  CLEAR     72  72 100 CALM      30.00R FOG
DELAND         CLEAR     73  72  94 SW5       30.00R
JFK SPACE CTR  CLEAR     75  74  97 S6        30.00R
CAPE CANAVERAL CLEAR     76  73  90 S8        29.99R
PATRICK AFB    CLEAR     76  74  93 S9        30.00R
MELBOURNE      MOCLDY    76  73  91 S6        30.01R
VERO BEACH     PTCLDY    75  73  93 CALM      30.01R
FT PIERCE      CLEAR     77  73  87 SE5       30.01R
STUART         PTCLDY    77  77 100 S3        30.02R

STATION/POSITION SKY/WX   TEMP    WIND        PRES    WAVE   SWELL
                          AIR SEA DIR/SP/G            HT/PER HT/PER
                          (F)     (DEG/KT/KT) (MB)    (FT/S) (FT/S)
28.5N   80.2W              77 76  170/ 10/ 12 1017.4
28.9N   78.5W              77 78  150/ 14/ 16 1017.0R   4/ 8   3/ 8
TRIDENT PIER               76 78  170/ 10/ 12 1017.4R
28.4N   80.5W                 77                N/A     3/ 4
27.5N   80.2W                 76                N/A     3/13   2/13

$$
FLZ050-056-061-142-242-148-248-149-249-151-251-155-255-
160-260-281100-
WEST CENTRAL FLORIDA

CITY           SKY/WX    TMP DP  RH WIND       PRES   REMARKS
CRYSTAL RIVER  FOG       66  66 100 CALM      29.99S VSB 1/4
INVERNESS      FOG       66  66 100 CALM      30.00S VSB 1/4
BROOKSVILLE    CLEAR     65  65 100 CALM      30.01R FOG
CLEARWATER AIR CLOUDY    72  72 100 SE3       29.98S
ST PETE CLEARW CLEAR     72  70  93 SE3       29.98R FOG
TAMPA INTL     PTCLDY    76  70  82 SE3       29.99R
TAMPA EXEC       N/A     68  64  88 CALM      30.00R FOG
PLANT CITY     CLEAR     70  70 100 SE3       30.02R FOG
MACDILL AFB    PTCLDY    71  71 100 SE5       29.98R
PETER O KNIGHT MOCLDY    75  73  94 SE3       30.00R
ST PETERSBURG  CLEAR     73  72  96 SE8       29.97R
SARASOTA       CLEAR     70  67  90 E5        29.97R
VENICE         FAIR      70  70 100 NE7       29.99R FOG

STATION/POSITION SKY/WX   TEMP    WIND        PRES    WAVE   SWELL
                          AIR SEA DIR/SP/G            HT/PER HT/PER
                          (F)     (DEG/KT/KT) (MB)    (FT/S) (FT/S)
27.3N   84.2W                 74                N/A     3/ 7
CLEARWATER BEACH           75 79  100/  4/  6 1015.4R
MIDDLE TAMPA BAY           72     140/  7/  9 1015.6R
VENICE                     71 78   60/  7/  8 1014.9R

$$
FLZ066-069-070-075>078-162-262-165-265-281100-
SOUTHWEST FLORIDA AND KEYS

CITY           SKY/WX    TMP DP  RH WIND       PRES   REMARKS
PUNTA GORDA    FOG       69  69 100 E3        30.00R VSB 1/2
FT MYERS       CLOUDY    74  74 100 SE6       29.99R FOG
SOUTHWEST INTL CLOUDY    73  73 100 SE9       29.98R FOG
NAPLES         CLOUDY    75  74  96 E8        29.98R FOG
IMMOKALEE      FOG       73  73 100 E5        29.99R VSB 1/2
MARATHON       CLEAR     81  77  88 SE9G16    29.97R
KEY WEST NAS   PTCLDY    81  78  91 E12       29.96R
KEY WEST INTL  PTCLDY    80  78  94 SE10      29.96R

STATION/POSITION SKY/WX   TEMP    WIND        PRES    WAVE   SWELL
                          AIR SEA DIR/SP/G            HT/PER HT/PER
                          (F)     (DEG/KT/KT) (MB)    (FT/S) (FT/S)
NAPLES                        78  110/  5/  7 1014.9R
26.0N   85.6W              79     140/ 14/ 17 1012.0
DRY TORTUGAS               79     140/ 11/ 12 1014.3R
SAND KEY                   79     130/ 10/ 11 1014.9R
LONG KEY                   80 81  130/ 13/ 16 1015.2R
MOLASSES REEF              79 78  120/ 15/ 17 1015.6R

$$
FLZ067-068-071>074-168-172>174-281100-
SOUTHEAST FLORIDA

CITY           SKY/WX    TMP DP  RH WIND       PRES   REMARKS
W PALM BEACH   PTCLDY    78  72  81 SE12      30.00R
FT LAUDER-EXEC PTCLDY    80  72  76 SE8       29.99R
FT LAUDERDALE  PTCLDY    78  73  84 SE12      29.99R
POMPANO BEACH  PTCLDY    79  73  82 SE13      29.99R
PEMBROKE PINES PTCLDY    78  73  84 SE12      30.01R
OPA LOCKA      CLEAR     76  72  87 SE9       30.00R
MIAMI          MOCLDY    80  73  79 SE10      30.00R
WEST KENDALL   CLEAR     79  72  79 SE9       29.99R
HOMESTEAD      PTCLDY    78  75  91 SE10      29.98R

STATION/POSITION SKY/WX   TEMP    WIND        PRES    WAVE   SWELL
                          AIR SEA DIR/SP/G            HT/PER HT/PER
                          (F)     (DEG/KT/KT) (MB)    (FT/S) (FT/S)
PORT EVERGLADES            79     140/ 13/ 16 1015.5R
VIRGINIA KEY               79 80  110/  9/ 12 1014.8R
LAKE WORTH                 78 79  150/ 14/ 17 1016.7R
FOWEY ROCKS                78 78  130/ 17/ 17 1016.2R
SETTLEMENT POINT           75     130/  6/  6 1016.6R

$$




USA.gov is the U.S. government's official web portal to all federal, state and local government web resources and services.